"Sample Date","Sample Time","Sample Value","Units","Flow Rate","Sample Interval","Number Channels","Micron Size 0","Counts/Channel 0","Micron Size 1","Counts/Channel 1","Micron Size 2","Counts/Channel 2","Micron Size 3","Counts/Channel 3","Micron Size 4","Counts/Channel 4","Micron Size 5","Counts/Channel 5","Micron Size 6","Counts/Channel 6","Micron Size 7","Counts/Channel 7","Micron Size 8","Counts/Channel 8","Micron Size 9","Counts/Channel 9","Micron Size 10","Counts/Channel 10","Micron Size 11","Counts/Channel 11","Micron Size 12","Counts/Channel 12","Micron Size 13","Counts/Channel 13","Micron Size 14","Counts/Channel 14","Micron Size 15","Counts/Channel 15","Micron Size 16","Counts/Channel 16","Micron Size 17","Counts/Channel 17","Micron Size 18","Counts/Channel 18","Micron Size 19","Counts/Channel 19","Micron Size 20","Counts/Channel 20","Micron Size 21","Counts/Channel 21","Micron Size 22","Counts/Channel 22","Micron Size 23","Counts/Channel 23","Micron Size 24","Counts/Channel 24","Micron Size 25","Counts/Channel 25","Micron Size 26","Counts/Channel 26","Micron Size 27","Counts/Channel 27","Micron Size 28","Counts/Channel 28","Micron Size 29","Counts/Channel 29","Micron Size 30","Counts/Channel 30","Micron Size 31","Counts/Channel 31"
"04/06/08","09:00:02",8822.000,"cc",28448.227,6.00,6,0.100,7318.000,0.200,721.000,0.300,309.000,0.500,351.000,1.000,123.000,5.000,0
"04/06/08","09:00:08",9020.000,"cc",28264.863,6.00,6,0.100,7416.000,0.200,768.000,0.300,341.000,0.500,350.000,1.000,145.000,5.000,0
"04/06/08","09:00:14",9244.000,"cc",28199.801,6.00,6,0.100,7582.000,0.200,800.000,0.300,340.000,0.500,372.000,1.000,150.000,5.000,0
"04/06/08","09:00:20",8815.000,"cc",28301.924,6.00,6,0.100,7324.000,0.200,689.000,0.300,322.000,0.500,346.000,1.000,134.000,5.000,0
"04/06/08","09:00:26",9378.000,"cc",28344.559,6.00,6,0.100,7538.000,0.200,844.000,0.300,400.000,0.500,429.000,1.000,167.000,5.000,0
"04/06/08","09:00:32",9118.000,"cc",28395.172,6.00,6,0.100,7505.000,0.200,736.000,0.300,362.000,0.500,382.000,1.000,133.000,5.000,0
"04/06/08","09:00:38",9034.000,"cc",28343.924,6.00,6,0.100,7479.000,0.200,731.000,0.300,335.000,0.500,352.000,1.000,137.000,5.000,0
"04/06/08","09:00:44",9136.000,"cc",28313.666,6.00,6,0.100,7526.000,0.200,776.000,0.300,318.000,0.500,364.000,1.000,152.000,5.000,0
"04/06/08","09:00:50",9534.000,"cc",28261.686,6.00,6,0.100,7719.000,0.200,798.000,0.300,442.000,0.500,404.000,1.000,171.000,5.000,0
"04/06/08","09:00:56",9014.000,"cc",28307.025,6.00,6,0.100,7481.000,0.200,762.000,0.300,311.000,0.500,324.000,1.000,136.000,5.000,0
"04/06/08","09:01:02",9111.000,"cc",28398.838,6.00,6,0.100,7502.000,0.200,772.000,0.300,325.000,0.500,371.000,1.000,141.000,5.000,0
"04/06/08","09:01:08",8921.000,"cc",28280.525,6.00,6,0.100,7407.000,0.200,770.000,0.300,295.000,0.500,326.000,1.000,123.000,5.000,0
"04/06/08","09:01:14",9320.000,"cc",28253.070,6.00,6,0.100,7612.000,0.200,837.000,0.300,349.000,0.500,342.000,1.000,180.000,5.000,0
"04/06/08","09:01:20",9133.000,"cc",28322.045,6.00,6,0.100,7526.000,0.200,735.000,0.300,331.000,0.500,378.000,1.000,163.000,5.000,0
"04/06/08","09:01:26",9835.000,"cc",28192.086,6.00,6,0.100,7892.000,0.200,920.000,0.300,401.000,0.500,460.000,1.000,162.000,5.000,0
"04/06/08","09:01:32",10170.000,"cc",28361.641,6.00,6,0.100,7876.000,0.200,996.000,0.300,544.000,0.500,528.000,1.000,226.000,5.000,0
"04/06/08","09:01:38",9272.000,"cc",28423.959,6.00,6,0.100,7695.000,0.200,773.000,0.300,337.000,0.500,331.000,1.000,136.000,5.000,0
"04/06/08","09:01:44",9092.000,"cc",28344.506,6.00,6,0.100,7529.000,0.200,761.000,0.300,314.000,0.500,339.000,1.000,149.000,5.000,0
"04/06/08","09:01:50",9142.000,"cc",28266.512,6.00,6,0.100,7606.000,0.200,815.000,0.300,292.000,0.500,315.000,1.000,114.000,5.000,0
"04/06/08","09:01:56",9961.000,"cc",28244.688,6.00,6,0.100,7998.000,0.200,948.000,0.300,433.000,0.500,429.000,1.000,153.000,5.000,0
"04/06/08","09:02:02",9389.000,"cc",28362.662,6.00,6,0.100,7678.000,0.200,835.000,0.300,373.000,0.500,371.000,1.000,132.000,5.000,0
"04/06/08","09:02:08",9196.000,"cc",28381.570,6.00,6,0.100,7541.000,0.200,746.000,0.300,336.000,0.500,409.000,1.000,164.000,5.000,0
"04/06/08","09:02:14",10689.000,"cc",28279.697,6.00,6,0.100,8358.000,0.200,1072.000,0.300,547.000,0.500,513.000,1.000,199.000,5.000,0
"04/06/08","09:02:20",9384.000,"cc",28323.637,6.00,6,0.100,7724.000,0.200,783.000,0.300,354.000,0.500,366.000,1.000,157.000,5.000,0
"04/06/08","09:02:26",9660.000,"cc",28275.916,6.00,6,0.100,7895.000,0.200,813.000,0.300,403.000,0.500,399.000,1.000,150.000,5.000,0
"04/06/08","09:02:32",9374.000,"cc",28308.461,6.00,6,0.100,7762.000,0.200,814.000,0.300,327.000,0.500,331.000,1.000,140.000,5.000,0
"04/06/08","09:02:38",9191.000,"cc",28231.051,6.00,6,0.100,7697.000,0.200,719.000,0.300,304.000,0.500,331.000,1.000,140.000,5.000,0
"04/06/08","09:02:44",11540.000,"cc",28334.770,6.00,6,0.100,8566.000,0.200,1327.000,0.300,725.000,0.500,658.000,1.000,264.000,5.000,0
"04/06/08","09:02:50",8754.000,"cc",28373.441,6.00,6,0.100,7132.000,0.200,774.000,0.300,314.000,0.500,382.000,1.000,152.000,5.000,0
"04/06/08","09:02:56",9059.000,"cc",28458.988,6.00,6,0.100,7366.000,0.200,805.000,0.300,366.000,0.500,343.000,1.000,179.000,5.000,0
"04/06/08","09:03:02",8993.000,"cc",28349.410,6.00,6,0.100,7464.000,0.200,747.000,0.300,310.000,0.500,337.000,1.000,135.000,5.000,0
"04/06/08","09:03:08",8769.000,"cc",28321.188,6.00,6,0.100,7334.000,0.200,725.000,0.300,302.000,0.500,293.000,1.000,115.000,5.000,0
"04/06/08","09:03:14",9263.000,"cc",28174.262,6.00,6,0.100,7538.000,0.200,788.000,0.300,347.000,0.500,405.000,1.000,185.000,5.000,0
"04/06/08","09:03:20",8792.000,"cc",28341.354,6.00,6,0.100,7294.000,0.200,736.000,0.300,311.000,0.500,341.000,1.000,110.000,5.000,0
"04/06/08","09:03:26",9642.000,"cc",28325.291,6.00,6,0.100,7815.000,0.200,902.000,0.300,411.000,0.500,379.000,1.000,135.000,5.000,0
"04/06/08","09:03:32",8869.000,"cc",28307.797,6.00,6,0.100,7366.000,0.200,767.000,0.300,296.000,0.500,293.000,1.000,147.000,5.000,0
"04/06/08","09:03:38",9014.000,"cc",28300.387,6.00,6,0.100,7369.000,0.200,797.000,0.300,357.000,0.500,354.000,1.000,137.000,5.000,0
"04/06/08","09:03:44",9091.000,"cc",28327.857,6.00,6,0.100,7598.000,0.200,788.000,0.300,333.000,0.500,271.000,1.000,101.000,5.000,0
"04/06/08","09:03:50",9159.000,"cc",28324.619,6.00,6,0.100,7585.000,0.200,809.000,0.300,310.000,0.500,303.000,1.000,152.000,5.000,0
"04/06/08","09:03:56",9519.000,"cc",28329.859,6.00,6,0.100,7753.000,0.200,827.000,0.300,405.000,0.500,393.000,1.000,141.000,5.000,0
"04/06/08","09:04:02",8887.000,"cc",28387.080,6.00,6,0.100,7196.000,0.200,741.000,0.300,365.000,0.500,402.000,1.000,183.000,5.000,0
"04/06/08","09:04:08",8800.000,"cc",28284.732,6.00,6,0.100,7333.000,0.200,678.000,0.300,321.000,0.500,318.000,1.000,150.000,5.000,0
"04/06/08","09:04:14",8456.000,"cc",28298.395,6.00,6,0.100,7048.000,0.200,698.000,0.300,268.000,0.500,317.000,1.000,125.000,5.000,0
"04/06/08","09:04:20",8606.000,"cc",28318.973,6.00,6,0.100,7134.000,0.200,711.000,0.300,282.000,0.500,329.000,1.000,150.000,5.000,0
"04/06/08","09:04:26",8606.000,"cc",28301.004,6.00,6,0.100,7181.000,0.200,688.000,0.300,300.000,0.500,314.000,1.000,123.000,5.000,0
"04/06/08","09:04:32",8953.000,"cc",28269.828,6.00,6,0.100,7313.000,0.200,777.000,0.300,355.000,0.500,344.000,1.000,164.000,5.000,0
"04/06/08","09:04:38",9541.000,"cc",28277.787,6.00,6,0.100,7716.000,0.200,901.000,0.300,390.000,0.500,399.000,1.000,135.000,5.000,0
"04/06/08","09:04:44",9229.000,"cc",28348.836,6.00,6,0.100,7588.000,0.200,804.000,0.300,347.000,0.500,365.000,1.000,125.000,5.000,0
"04/06/08","09:04:50",9165.000,"cc",28322.762,6.00,6,0.100,7520.000,0.200,782.000,0.300,317.000,0.500,371.000,1.000,175.000,5.000,0
"04/06/08","09:04:56",9289.000,"cc",28361.619,6.00,6,0.100,7716.000,0.200,776.000,0.300,317.000,0.500,358.000,1.000,122.000,5.000,0
"04/06/08","09:05:02",9128.000,"cc",28272.094,6.00,6,0.100,7613.000,0.200,773.000,0.300,296.000,0.500,303.000,1.000,143.000,5.000,0
"04/06/08","09:05:08",9582.000,"cc",28291.990,6.00,6,0.100,7864.000,0.200,844.000,0.300,347.000,0.500,374.000,1.000,153.000,5.000,0
"04/06/08","09:05:14",9387.000,"cc",28360.234,6.00,6,0.100,7775.000,0.200,783.000,0.300,342.000,0.500,349.000,1.000,138.000,5.000,0
"04/06/08","09:05:20",13403.000,"cc",28371.400,6.00,6,0.100,9980.000,0.200,1702.000,0.300,837.000,0.500,634.000,1.000,250.000,5.000,0
"04/06/08","09:05:26",9502.000,"cc",28311.940,6.00,6,0.100,7835.000,0.200,830.000,0.300,377.000,0.500,316.000,1.000,144.000,5.000,0
"04/06/08","09:05:32",9090.000,"cc",28292.770,6.00,6,0.100,7617.000,0.200,753.000,0.300,290.000,0.500,301.000,1.000,129.000,5.000,0
"04/06/08","09:05:38",9453.000,"cc",28213.209,6.00,6,0.100,7852.000,0.200,760.000,0.300,324.000,0.500,357.000,1.000,160.000,5.000,0
"04/06/08","09:05:44",9162.000,"cc",28400.147,6.00,6,0.100,7605.000,0.200,754.000,0.300,304.000,0.500,340.000,1.000,159.000,5.000,0
"04/06/08","09:05:50",9157.000,"cc",28367.998,6.00,6,0.100,7645.000,0.200,777.000,0.300,307.000,0.500,290.000,1.000,138.000,5.000,0
"04/06/08","09:05:56",9133.000,"cc",28295.758,6.00,6,0.100,7652.000,0.200,754.000,0.300,304.000,0.500,287.000,1.000,136.000,5.000,0
"04/06/08","09:06:02",9200.000,"cc",28321.025,6.00,6,0.100,7639.000,0.200,759.000,0.300,317.000,0.500,361.000,1.000,124.000,5.000,0
"04/06/08","09:06:08",9079.000,"cc",28284.770,6.00,6,0.100,7644.000,0.200,710.000,0.300,292.000,0.500,309.000,1.000,124.000,5.000,0
"04/06/08","09:06:14",9081.000,"cc",28398.994,6.00,6,0.100,7684.000,0.200,718.000,0.300,276.000,0.500,292.000,1.000,111.000,5.000,0
"04/06/08","09:06:20",8943.000,"cc",28233.023,6.00,6,0.100,7498.000,0.200,728.000,0.300,281.000,0.500,292.000,1.000,144.000,5.000,0
"04/06/08","09:06:26",8882.000,"cc",28325.731,6.00,6,0.100,7481.000,0.200,682.000,0.300,280.000,0.500,304.000,1.000,135.000,5.000,0
"04/06/08","09:06:32",9012.000,"cc",28307.842,6.00,6,0.100,7619.000,0.200,675.000,0.300,309.000,0.500,308.000,1.000,101.000,5.000,0
"04/06/08","09:06:38",9110.000,"cc",28289.178,6.00,6,0.100,7546.000,0.200,755.000,0.300,364.000,0.500,320.000,1.000,125.000,5.000,0
"04/06/08","09:06:44",9306.000,"cc",28330.336,6.00,6,0.100,7843.000,0.200,739.000,0.300,293.000,0.500,315.000,1.000,116.000,5.000,0
"04/06/08","09:06:50",9554.000,"cc",28342.315,6.00,6,0.100,7932.000,0.200,807.000,0.300,328.000,0.500,345.000,1.000,142.000,5.000,0
"04/06/08","09:06:56",9313.000,"cc",28277.641,6.00,6,0.100,7714.000,0.200,797.000,0.300,317.000,0.500,346.000,1.000,138.000,5.000,1.000
"04/06/08","09:07:02",9226.000,"cc",28319.762,6.00,6,0.100,7677.000,0.200,719.000,0.300,345.000,0.500,358.000,1.000,127.000,5.000,0
"04/06/08","09:07:08",9084.000,"cc",28302.008,6.00,6,0.100,7632.000,0.200,735.000,0.300,298.000,0.500,307.000,1.000,112.000,5.000,0
"04/06/08","09:07:14",9300.000,"cc",28326.588,6.00,6,0.100,7761.000,0.200,741.000,0.300,306.000,0.500,362.000,1.000,130.000,5.000,0
"04/06/08","09:07:20",9242.000,"cc",28322.203,6.00,6,0.100,7660.000,0.200,765.000,0.300,325.000,0.500,342.000,1.000,150.000,5.000,0
"04/06/08","09:07:26",9444.000,"cc",28322.772,6.00,6,0.100,7704.000,0.200,845.000,0.300,333.000,0.500,394.000,1.000,168.000,5.000,0
"04/06/08","09:07:32",9381.000,"cc",28323.680,6.00,6,0.100,7856.000,0.200,718.000,0.300,333.000,0.500,348.000,1.000,126.000,5.000,0
"04/06/08","09:07:38",10085.000,"cc",28302.598,6.00,6,0.100,8118.000,0.200,997.000,0.300,398.000,0.500,423.000,1.000,149.000,5.000,0
"04/06/08","09:07:44",9980.000,"cc",28320.709,6.00,6,0.100,8194.000,0.200,867.000,0.300,383.000,0.500,394.000,1.000,142.000,5.000,0
"04/06/08","09:07:50",9860.000,"cc",28315.955,6.00,6,0.100,8143.000,0.200,879.000,0.300,377.000,0.500,329.000,1.000,132.000,5.000,0
"04/06/08","09:07:56",9922.000,"cc",28306.777,6.00,6,0.100,8185.000,0.200,829.000,0.300,388.000,0.500,376.000,1.000,144.000,5.000,0
"04/06/08","09:08:02",10114.000,"cc",28325.795,6.00,6,0.100,8406.000,0.200,892.000,0.300,339.000,0.500,348.000,1.000,129.000,5.000,0
"04/06/08","09:08:08",10045.000,"cc",28276.227,6.00,6,0.100,8285.000,0.200,883.000,0.300,346.000,0.500,376.000,1.000,155.000,5.000,0
"04/06/08","09:08:14",9837.000,"cc",28332.397,6.00,6,0.100,8182.000,0.200,804.000,0.300,338.000,0.500,355.000,1.000,158.000,5.000,0
"04/06/08","09:08:20",9850.000,"cc",28365.328,6.00,6,0.100,8185.000,0.200,867.000,0.300,319.000,0.500,345.000,1.000,134.000,5.000,0
"04/06/08","09:08:26",9727.000,"cc",28279.949,6.00,6,0.100,8082.000,0.200,807.000,0.300,362.000,0.500,347.000,1.000,129.000,5.000,0
"04/06/08","09:08:32",9775.000,"cc",28297.875,6.00,6,0.100,8174.000,0.200,822.000,0.300,313.000,0.500,340.000,1.000,126.000,5.000,0
"04/06/08","09:08:38",9745.000,"cc",28352.275,6.00,6,0.100,8075.000,0.200,855.000,0.300,304.000,0.500,368.000,1.000,143.000,5.000,0
"04/06/08","09:08:44",10178.000,"cc",28313.213,6.00,6,0.100,8384.000,0.200,899.000,0.300,355.000,0.500,396.000,1.000,144.000,5.000,0
"04/06/08","09:08:50",10292.000,"cc",28353.422,6.00,6,0.100,8578.000,0.200,883.000,0.300,332.000,0.500,334.000,1.000,165.000,5.000,0
"04/06/08","09:08:56",10339.000,"cc",28237.654,6.00,6,0.100,8584.000,0.200,904.000,0.300,333.000,0.500,368.000,1.000,150.000,5.000,0
"04/06/08","09:09:02",10076.000,"cc",28305.795,6.00,6,0.100,8393.000,0.200,893.000,0.300,331.000,0.500,301.000,1.000,158.000,5.000,0
"04/06/08","09:09:08",9809.000,"cc",28347.260,6.00,6,0.100,8109.000,0.200,885.000,0.300,348.000,0.500,340.000,1.000,127.000,5.000,0
"04/06/08","09:09:14",11480.000,"cc",28341.234,6.00,6,0.100,9071.000,0.200,1133.000,0.300,595.000,0.500,488.000,1.000,193.000,5.000,0
"04/06/08","09:09:20",9992.000,"cc",28263.598,6.00,6,0.100,8295.000,0.200,898.000,0.300,327.000,0.500,333.000,1.000,139.000,5.000,0
"04/06/08","09:09:26",10346.000,"cc",28315.459,6.00,6,0.100,8613.000,0.200,887.000,0.300,352.000,0.500,349.000,1.000,145.000,5.000,0
"04/06/08","09:09:32",10900.000,"cc",28320.955,6.00,6,0.100,9127.000,0.200,934.000,0.300,325.000,0.500,373.000,1.000,141.000,5.000,0
"04/06/08","09:09:38",11009.000,"cc",28302.514,6.00,6,0.100,9102.000,0.200,977.000,0.300,410.000,0.500,366.000,1.000,154.000,5.000,0
"04/06/08","09:09:44",10993.000,"cc",28369.936,6.00,6,0.100,9079.000,0.200,976.000,0.300,383.000,0.500,417.000,1.000,138.000,5.000,0
"04/06/08","09:09:50",10866.000,"cc",28258.135,6.00,6,0.100,9076.000,0.200,938.000,0.300,340.000,0.500,364.000,1.000,148.000,5.000,0
"04/06/08","09:09:56",10669.000,"cc",28316.063,6.00,6,0.100,8857.000,0.200,945.000,0.300,353.000,0.500,353.000,1.000,161.000,5.000,0
"04/06/08","09:10:02",10330.000,"cc",28360.523,6.00,6,0.100,8668.000,0.200,891.000,0.300,306.000,0.500,347.000,1.000,118.000,5.000,0
"04/06/08","09:10:08",10431.000,"cc",28299.496,6.00,6,0.100,8632.000,0.200,907.000,0.300,358.000,0.500,378.000,1.000,156.000,5.000,0
"04/06/08","09:10:14",10491.000,"cc",28291.238,6.00,6,0.100,8851.000,0.200,848.000,0.300,322.000,0.500,333.000,1.000,137.000,5.000,0
"04/06/08","09:10:20",10656.000,"cc",28259.461,6.00,6,0.100,8703.000,0.200,979.000,0.300,427.000,0.500,392.000,1.000,155.000,5.000,0
"04/06/08","09:10:26",10446.000,"cc",28389.959,6.00,6,0.100,8585.000,0.200,935.000,0.300,375.000,0.500,407.000,1.000,144.000,5.000,0
"04/06/08","09:10:32",10314.000,"cc",28379.654,6.00,6,0.100,8529.000,0.200,916.000,0.300,362.000,0.500,370.000,1.000,137.000,5.000,0
"04/06/08","09:10:38",10727.000,"cc",28254.066,6.00,6,0.100,8818.000,0.200,972.000,0.300,390.000,0.500,408.000,1.000,139.000,5.000,0
"04/06/08","09:10:44",10651.000,"cc",28351.334,6.00,6,0.100,8881.000,0.200,911.000,0.300,360.000,0.500,348.000,1.000,151.000,5.000,0
"04/06/08","09:10:50",10480.000,"cc",28360.955,6.00,6,0.100,8701.000,0.200,940.000,0.300,333.000,0.500,362.000,1.000,144.000,5.000,0
"04/06/08","09:10:56",10555.000,"cc",28284.254,6.00,6,0.100,8672.000,0.200,967.000,0.300,386.000,0.500,374.000,1.000,156.000,5.000,0
"04/06/08","09:11:02",10477.000,"cc",28234.559,6.00,6,0.100,8661.000,0.200,952.000,0.300,367.000,0.500,354.000,1.000,143.000,5.000,0
"04/06/08","09:11:08",11229.000,"cc",28305.326,6.00,6,0.100,9125.000,0.200,1072.000,0.300,431.000,0.500,420.000,1.000,181.000,5.000,0
"04/06/08","09:11:14",10890.000,"cc",28349.389,6.00,6,0.100,8903.000,0.200,1005.000,0.300,407.000,0.500,403.000,1.000,172.000,5.000,0
"04/06/08","09:11:20",10796.000,"cc",28358.871,6.00,6,0.100,8955.000,0.200,944.000,0.300,351.000,0.500,393.000,1.000,153.000,5.000,0
"04/06/08","09:11:26",10851.000,"cc",28319.654,6.00,6,0.100,8907.000,0.200,991.000,0.300,386.000,0.500,408.000,1.000,159.000,5.000,0
"04/06/08","09:11:32",10893.000,"cc",28313.477,6.00,6,0.100,9017.000,0.200,979.000,0.300,345.000,0.500,397.000,1.000,155.000,5.000,0
"04/06/08","09:11:38",10932.000,"cc",28276.334,6.00,6,0.100,8950.000,0.200,1033.000,0.300,370.000,0.500,420.000,1.000,159.000,5.000,0
"04/06/08","09:11:44",10584.000,"cc",28332.397,6.00,6,0.100,8754.000,0.200,982.000,0.300,342.000,0.500,350.000,1.000,156.000,5.000,0
"04/06/08","09:11:50",10689.000,"cc",28310.895,6.00,6,0.100,8894.000,0.200,968.000,0.300,346.000,0.500,344.000,1.000,137.000,5.000,0
"04/06/08","09:11:56",10530.000,"cc",28318.061,6.00,6,0.100,8686.000,0.200,973.000,0.300,350.000,0.500,358.000,1.000,163.000,5.000,0
"04/06/08","09:12:02",10892.000,"cc",28398.838,6.00,6,0.100,9006.000,0.200,966.000,0.300,384.000,0.500,409.000,1.000,127.000,5.000,0
"04/06/08","09:12:08",10772.000,"cc",28282.035,6.00,6,0.100,8859.000,0.200,960.000,0.300,361.000,0.500,419.000,1.000,173.000,5.000,0
"04/06/08","09:12:14",10580.000,"cc",28279.861,6.00,6,0.100,8704.000,0.200,963.000,0.300,381.000,0.500,392.000,1.000,140.000,5.000,0
"04/06/08","09:12:20",10889.000,"cc",28299.107,6.00,6,0.100,8987.000,0.200,955.000,0.300,372.000,0.500,400.000,1.000,175.000,5.000,0
"04/06/08","09:12:26",10831.000,"cc",28232.770,6.00,6,0.100,8975.000,0.200,949.000,0.300,371.000,0.500,379.000,1.000,157.000,5.000,0
"04/06/08","09:12:32",10959.000,"cc",28301.699,6.00,6,0.100,8920.000,0.200,1099.000,0.300,389.000,0.500,394.000,1.000,157.000,5.000,0
"04/06/08","09:12:38",10942.000,"cc",28343.320,6.00,6,0.100,8931.000,0.200,989.000,0.300,410.000,0.500,423.000,1.000,189.000,5.000,0
"04/06/08","09:12:44",10974.000,"cc",28345.727,6.00,6,0.100,8935.000,0.200,1029.000,0.300,442.000,0.500,408.000,1.000,160.000,5.000,0
"04/06/08","09:12:50",11164.000,"cc",28312.699,6.00,6,0.100,9194.000,0.200,994.000,0.300,406.000,0.500,415.000,1.000,155.000,5.000,0
"04/06/08","09:12:56",11175.000,"cc",28386.773,6.00,6,0.100,8949.000,0.200,1135.000,0.300,462.000,0.500,454.000,1.000,175.000,5.000,0
"04/06/08","09:13:02",10871.000,"cc",28301.611,6.00,6,0.100,8882.000,0.200,1049.000,0.300,388.000,0.500,377.000,1.000,175.000,5.000,0
"04/06/08","09:13:08",10557.000,"cc",28323.182,6.00,6,0.100,8655.000,0.200,969.000,0.300,365.000,0.500,387.000,1.000,181.000,5.000,0
"04/06/08","09:13:14",10783.000,"cc",28347.777,6.00,6,0.100,8896.000,0.200,980.000,0.300,383.000,0.500,366.000,1.000,158.000,5.000,0
"04/06/08","09:13:20",10499.000,"cc",28235.566,6.00,6,0.100,8704.000,0.200,965.000,0.300,342.000,0.500,338.000,1.000,150.000,5.000,0
"04/06/08","09:13:26",10790.000,"cc",28251.686,6.00,6,0.100,8914.000,0.200,997.000,0.300,342.000,0.500,374.000,1.000,163.000,5.000,0
"04/06/08","09:13:32",11031.000,"cc",28352.533,6.00,6,0.100,8973.000,0.200,1094.000,0.300,430.000,0.500,377.000,1.000,157.000,5.000,0
"04/06/08","09:13:38",10596.000,"cc",28307.012,6.00,6,0.100,8764.000,0.200,963.000,0.300,326.000,0.500,379.000,1.000,164.000,5.000,0
"04/06/08","09:13:44",10612.000,"cc",28295.504,6.00,6,0.100,8795.000,0.200,937.000,0.300,375.000,0.500,364.000,1.000,141.000,5.000,0
"04/06/08","09:13:50",11338.000,"cc",28313.818,6.00,6,0.100,9135.000,0.200,1126.000,0.300,432.000,0.500,466.000,1.000,179.000,5.000,0
"04/06/08","09:13:56",11140.000,"cc",28353.912,6.00,6,0.100,9045.000,0.200,1077.000,0.300,404.000,0.500,437.000,1.000,177.000,5.000,0
"04/06/08","09:14:02",10668.000,"cc",28463.854,6.00,6,0.100,8757.000,0.200,950.000,0.300,403.000,0.500,401.000,1.000,157.000,5.000,0
"04/06/08","09:14:08",10573.000,"cc",28304.479,6.00,6,0.100,8704.000,0.200,961.000,0.300,351.000,0.500,404.000,1.000,153.000,5.000,0
"04/06/08","09:14:14",10542.000,"cc",28314.272,6.00,6,0.100,8628.000,0.200,992.000,0.300,381.000,0.500,400.000,1.000,141.000,5.000,0
"04/06/08","09:14:20",10590.000,"cc",28307.086,6.00,6,0.100,8691.000,0.200,961.000,0.300,386.000,0.500,403.000,1.000,149.000,5.000,0
"04/06/08","09:14:26",10612.000,"cc",28346.348,6.00,6,0.100,8638.000,0.200,976.000,0.300,408.000,0.500,425.000,1.000,165.000,5.000,0
"04/06/08","09:14:32",10620.000,"cc",28246.850,6.00,6,0.100,8750.000,0.200,948.000,0.300,356.000,0.500,416.000,1.000,150.000,5.000,0
"04/06/08","09:14:38",10644.000,"cc",28362.740,6.00,6,0.100,8798.000,0.200,944.000,0.300,344.000,0.500,406.000,1.000,152.000,5.000,0
"04/06/08","09:14:44",10818.000,"cc",28310.379,6.00,6,0.100,8931.000,0.200,979.000,0.300,365.000,0.500,392.000,1.000,151.000,5.000,0
"04/06/08","09:14:50",10675.000,"cc",28274.252,6.00,6,0.100,8851.000,0.200,946.000,0.300,335.000,0.500,386.000,1.000,157.000,5.000,0
"04/06/08","09:14:56",10717.000,"cc",28364.156,6.00,6,0.100,8815.000,0.200,931.000,0.300,388.000,0.500,420.000,1.000,163.000,5.000,0
"04/06/08","09:15:02",10513.000,"cc",28261.836,6.00,6,0.100,8707.000,0.200,949.000,0.300,353.000,0.500,376.000,1.000,128.000,5.000,0
"04/06/08","09:15:08",10692.000,"cc",28306.885,6.00,6,0.100,8763.000,0.200,979.000,0.300,415.000,0.500,374.000,1.000,161.000,5.000,0
"04/06/08","09:15:14",10294.000,"cc",28380.410,6.00,6,0.100,8510.000,0.200,892.000,0.300,363.000,0.500,362.000,1.000,167.000,5.000,0
"04/06/08","09:15:20",10559.000,"cc",28346.611,6.00,6,0.100,8651.000,0.200,1003.000,0.300,342.000,0.500,391.000,1.000,172.000,5.000,0
"04/06/08","09:15:26",10435.000,"cc",28293.949,6.00,6,0.100,8615.000,0.200,926.000,0.300,349.000,0.500,384.000,1.000,161.000,5.000,0
"04/06/08","09:15:32",10534.000,"cc",28315.553,6.00,6,0.100,8711.000,0.200,923.000,0.300,358.000,0.500,398.000,1.000,144.000,5.000,0
"04/06/08","09:15:38",10268.000,"cc",28338.148,6.00,6,0.100,8474.000,0.200,939.000,0.300,360.000,0.500,360.000,1.000,135.000,5.000,0
"04/06/08","09:15:44",10539.000,"cc",28252.617,6.00,6,0.100,8716.000,0.200,961.000,0.300,353.000,0.500,372.000,1.000,137.000,5.000,0
"04/06/08","09:15:50",10725.000,"cc",28355.664,6.00,6,0.100,8777.000,0.200,989.000,0.300,391.000,0.500,409.000,1.000,159.000,5.000,0
"04/06/08","09:15:56",10724.000,"cc",28315.736,6.00,6,0.100,8821.000,0.200,934.000,0.300,378.000,0.500,422.000,1.000,169.000,5.000,0
"04/06/08","09:16:02",10596.000,"cc",28316.684,6.00,6,0.100,8698.000,0.200,954.000,0.300,388.000,0.500,399.000,1.000,157.000,5.000,0
"04/06/08","09:16:08",10506.000,"cc",28300.342,6.00,6,0.100,8599.000,0.200,966.000,0.300,393.000,0.500,403.000,1.000,145.000,5.000,0
"04/06/08","09:16:14",10759.000,"cc",28300.955,6.00,6,0.100,8794.000,0.200,1005.000,0.300,383.000,0.500,401.000,1.000,176.000,5.000,0
"04/06/08","09:16:20",10798.000,"cc",28363.484,6.00,6,0.100,8880.000,0.200,951.000,0.300,388.000,0.500,412.000,1.000,167.000,5.000,0
"04/06/08","09:16:26",10726.000,"cc",28254.395,6.00,6,0.100,8921.000,0.200,943.000,0.300,318.000,0.500,385.000,1.000,159.000,5.000,0
"04/06/08","09:16:32",11320.000,"cc",28285.063,6.00,6,0.100,9020.000,0.200,1151.000,0.300,452.000,0.500,487.000,1.000,210.000,5.000,0
"04/06/08","09:16:38",10724.000,"cc",28287.100,6.00,6,0.100,8831.000,0.200,1023.000,0.300,344.000,0.500,380.000,1.000,146.000,5.000,0
"04/06/08","09:16:44",10721.000,"cc",28285.838,6.00,6,0.100,8703.000,0.200,1050.000,0.300,374.000,0.500,418.000,1.000,176.000,5.000,0
"04/06/08","09:16:50",10565.000,"cc",28350.121,6.00,6,0.100,8727.000,0.200,933.000,0.300,369.000,0.500,382.000,1.000,154.000,5.000,0
"04/06/08","09:16:56",10400.000,"cc",28362.178,6.00,6,0.100,8600.000,0.200,952.000,0.300,348.000,0.500,353.000,1.000,147.000,5.000,0